Bigfork, MN

7:33 PM CDT on October 19, 2017 (GMT -0500)
Bigfork Municipal

Weather History for KFOZ - February, 2014

Change the Weather History Date:

Saturday, February 1, 2014

  Actual Average (KGPZ) Record (KGPZ)
Temperature  
Mean Temperature -3 °F -  
Max Temperature 10 °F 20 °F 47 °F (1993)
Min Temperature -16 °F -3 °F -41 °F (1938)
Degree Days  
Heating Degree Days 68    
Moisture  
Dew Point -4 °F    
Average Humidity 74    
Maximum Humidity 85    
Minimum Humidity 52    
Precipitation  
Precipitation 0.02 in - - ()
Sea Level Pressure  
Sea Level Pressure 29.91 in    
Wind  
Wind Speed 2 mph (WNW)    
Max Wind Speed 8 mph    
Max Gust Speed -    
Visibility 6 miles    
Events Snow    
Averages and records for this station are not official NWS values.
T = Trace of Precipitation, MM = Missing Value Source: NWS Daily Summary

Daily Weather History Graph

Daily Weather History Graph

Search for Another Location

Airport or City:

Trip Planner

Search our weather history database for the weather conditions in past years. The results will help you decide how hot, cold, wet, or windy it might be!

Date:

Astronomy

Feb. 01, 2014 Rise Set
Actual Time 7:41 AM CST 5:15 PM CST
Civil Twilight 7:08 AM CST 5:48 PM CST
Nautical Twilight 6:31 AM CST 6:25 PM CST
Astronomical Twilight 5:55 AM CST 7:01 PM CST
Moon 8:18 AM CST (2/1) 8:06 PM CST (2/1)
Length of Visible Light 10h 40m
Length of Day
9h 33m
Waxing Crescent, 5% of the Moon is Illuminated
Feb 1
Waxing Crescent
Feb 6
First Quarter
Feb 14
Full
Feb 22
Last Quarter
Mar 1
New

Hourly Weather History & Observations

Time (CST) Temp. Windchill Dew Point Humidity Pressure Visibility Wind Dir Wind Speed Gust Speed Precip Events Conditions
12:13 AM -2.2 °F -12.5 °F -7.6 °F 78% 29.84 in 10.0 mi SSW 4.6 mph - N/A   Scattered Clouds
12:33 AM -0.4 °F - -5.8 °F 78% 29.83 in 10.0 mi Calm Calm - N/A   Mostly Cloudy
12:53 AM -0.4 °F -13.4 °F -5.8 °F 78% 29.83 in 10.0 mi South 6.9 mph - N/A   Overcast
1:13 AM -0.4 °F -10.4 °F -5.8 °F 78% 29.82 in 10.0 mi South 4.6 mph - N/A   Scattered Clouds
1:33 AM -0.4 °F -8.3 °F -5.8 °F 78% 29.82 in 10.0 mi South 3.5 mph - N/A   Mostly Cloudy
1:53 AM -0.4 °F -8.3 °F -5.8 °F 78% 29.82 in 10.0 mi South 3.5 mph - N/A   Overcast
2:13 AM 1.4 °F - -4.0 °F 78% 29.82 in 10.0 mi Calm Calm - N/A   Overcast
2:33 AM 1.4 °F - -2.2 °F 85% 29.82 in 10.0 mi Calm Calm - N/A Snow Light Snow
2:53 AM 3.2 °F - -2.2 °F 78% 29.83 in 10.0 mi Calm Calm - N/A Snow Light Snow
3:13 AM 3.2 °F - -2.2 °F 78% 29.82 in 3.0 mi Calm Calm - N/A Snow Light Snow
3:33 AM 3.2 °F - -2.2 °F 78% 29.82 in 2.0 mi Calm Calm - N/A Snow Light Snow
3:53 AM 3.2 °F - -2.2 °F 78% 29.82 in 2.0 mi Calm Calm - N/A Snow Light Snow
4:13 AM 3.2 °F - -0.4 °F 85% 29.82 in 1.2 mi Calm Calm - N/A Snow Light Snow
4:33 AM 3.2 °F - -0.4 °F 85% 29.82 in 1.0 mi Calm Calm - N/A Snow Snow
4:53 AM 3.2 °F - -0.4 °F 85% 29.82 in 1.0 mi Calm Calm - N/A Snow Snow
5:13 AM 5.0 °F - -0.4 °F 78% 29.82 in 1.8 mi Calm Calm - N/A Snow Light Snow
5:33 AM 3.2 °F - -0.4 °F 85% 29.82 in 1.2 mi Calm Calm - N/A Snow Light Snow
5:53 AM 5.0 °F - -0.4 °F 78% 29.82 in 1.2 mi Calm Calm - N/A Snow Snow
6:13 AM 5.0 °F - -0.4 °F 78% 29.82 in 1.0 mi Calm Calm - N/A Snow Snow
6:33 AM 3.2 °F - -0.4 °F 85% 29.83 in 1.0 mi Calm Calm - N/A Snow Snow
6:53 AM 3.2 °F - -0.4 °F 85% 29.83 in 1.0 mi Calm Calm - N/A Snow Snow
7:13 AM 3.2 °F - -0.4 °F 85% 29.83 in 1.2 mi Calm Calm - 0.01 in Snow Light Snow
7:33 AM 3.2 °F - -0.4 °F 85% 29.84 in 1.5 mi Calm Calm - 0.01 in Snow Light Snow
7:53 AM 3.2 °F - -0.4 °F 85% 29.85 in 1.2 mi Calm Calm - N/A Snow Light Snow
8:13 AM 3.2 °F - -0.4 °F 85% 29.85 in 3.0 mi Calm Calm - 0.01 in Snow Light Snow
8:33 AM 3.2 °F - -2.2 °F 78% 29.85 in 1.5 mi Calm Calm - 0.01 in Snow Light Snow
8:53 AM 3.2 °F - -0.4 °F 85% 29.86 in 3.0 mi Calm Calm - N/A Snow Light Snow
9:13 AM 5.0 °F - -0.4 °F 78% 29.86 in 5.0 mi Calm Calm - N/A Snow Light Snow
9:33 AM 6.8 °F - 1.4 °F 79% 29.86 in 4.0 mi Calm Calm - N/A Snow Light Snow
9:53 AM 6.8 °F -2.0 °F 1.4 °F 79% 29.87 in 3.0 mi NNW 4.6 mph - N/A Snow Light Snow
10:13 AM 6.8 °F -0.1 °F 1.4 °F 79% 29.88 in 2.0 mi NW 3.5 mph - N/A Snow Light Snow
10:33 AM 6.8 °F -0.1 °F 1.4 °F 79% 29.89 in 2.0 mi NW 3.5 mph - N/A Snow Light Snow
10:53 AM 8.6 °F 2.0 °F 1.4 °F 73% 29.90 in 1.8 mi NNW 3.5 mph - N/A Snow Light Snow
11:13 AM 8.6 °F -2.6 °F 1.4 °F 73% 29.91 in 3.0 mi NNW 6.9 mph - N/A Snow Light Snow
11:33 AM 8.6 °F -1.3 °F 1.4 °F 73% 29.91 in 4.0 mi NW 5.8 mph - N/A Snow Light Snow
11:53 AM 8.6 °F 0.1 °F 1.4 °F 73% 29.91 in 3.0 mi NNW 4.6 mph - N/A Snow Light Snow
12:13 PM 8.6 °F -2.6 °F -0.4 °F 67% 29.92 in 4.0 mi NNW 6.9 mph - N/A Snow Light Snow
12:33 PM 8.6 °F -1.3 °F -0.4 °F 67% 29.93 in 2.5 mi NNW 5.8 mph - N/A Snow Light Snow
12:53 PM 10.4 °F -1.5 °F -0.4 °F 62% 29.93 in 2.0 mi WNW 8.1 mph - N/A Snow Light Snow
1:13 PM 8.6 °F -1.3 °F -0.4 °F 67% 29.93 in 2.0 mi WNW 5.8 mph - N/A Snow Light Snow
1:33 PM 8.6 °F -2.6 °F -2.2 °F 62% 29.93 in 5.0 mi NNW 6.9 mph - N/A Snow Light Snow
1:53 PM 8.6 °F -2.6 °F -2.2 °F 62% 29.93 in 4.0 mi NW 6.9 mph - N/A Snow Light Snow
2:13 PM 8.6 °F -1.3 °F -2.2 °F 62% 29.94 in 3.0 mi WNW 5.8 mph - N/A Snow Light Snow
2:33 PM 8.6 °F -2.6 °F -2.2 °F 62% 29.94 in 7.0 mi WNW 6.9 mph - N/A Snow Light Snow
2:53 PM 8.6 °F -1.3 °F -4.0 °F 57% 29.95 in 5.0 mi WNW 5.8 mph - N/A Snow Light Snow
3:13 PM 8.6 °F -3.7 °F -4.0 °F 57% 29.96 in 7.0 mi West 8.1 mph - N/A Snow Light Snow
3:33 PM 8.6 °F -2.6 °F -5.8 °F 52% 29.97 in 7.0 mi West 6.9 mph - N/A Snow Light Snow
3:53 PM 6.8 °F -3.5 °F -5.8 °F 56% 29.98 in 10.0 mi NNW 5.8 mph - N/A   Clear
4:13 PM 6.8 °F -0.1 °F -7.6 °F 52% 29.99 in 10.0 mi NNW 3.5 mph - N/A   Clear
4:33 PM 6.8 °F -3.5 °F -7.6 °F 52% 29.99 in 10.0 mi NW 5.8 mph - N/A   Clear
4:53 PM 3.2 °F -6.2 °F -7.6 °F 61% 30.00 in 10.0 mi NNW 4.6 mph - N/A   Clear
5:13 PM 3.2 °F - -7.6 °F 61% 30.01 in 10.0 mi Calm Calm - N/A   Clear
5:33 PM 1.4 °F - -9.4 °F 61% 30.02 in 10.0 mi Calm Calm - N/A   Clear
5:53 PM -2.2 °F - -9.4 °F 71% 30.02 in 10.0 mi Calm Calm - N/A   Clear
6:13 PM -4.0 °F - -11.2 °F 71% 30.04 in 10.0 mi Calm Calm - N/A   Clear
6:33 PM -5.8 °F - -11.2 °F 77% 30.05 in 10.0 mi Calm Calm - N/A   Clear
9:41 PM -5.8 °F -14.5 °F -11.2 °F 77% 30.08 in 10.0 mi West 3.5 mph - N/A   Clear
10:11 PM -9.4 °F - -14.8 °F 77% 30.10 in 10.0 mi Calm Calm - N/A   Clear
10:13 PM -9.4 °F - -14.8 °F 77% 30.10 in 10.0 mi Calm Calm - N/A   Clear
10:40 PM -9.4 °F - -14.8 °F 77% 30.10 in 10.0 mi Calm Calm - N/A   Clear
10:53 PM -11.2 °F - -16.6 °F 77% 30.09 in 10.0 mi Calm Calm - N/A   Clear
11:13 PM -14.8 °F - -18.4 °F 84% 30.10 in 10.0 mi Calm Calm - N/A   Clear
11:33 PM -16.6 °F - -22.0 °F 76% 30.10 in 10.0 mi Calm Calm - N/A   Clear
11:53 PM -16.6 °F - -22.0 °F 76% 30.10 in 10.0 mi Calm Calm - N/A   Clear